This demonstration page uses our WeatherBlox Daily Observations layout. Learn more.

Left ArrowRight Arrow

Hourly Observations for June 27, 2021

Temp ( °F °C ) Dew Point ( °F °C ) Humidity (%) Winds ( mph kmh ) Pressure ( in mb ) Visibility ( mi km ) Precip ( " mm )
12:53 am 00:53 Clear 85 29.4 62 16.7 46 46 NE 6 9 29.70 1006 10 16 0.00 0.00
1:53 am 01:53 Clear 84 28.9 62 16.7 48 48 Calm 29.70 1006 10 16 0.00 0.00
2:53 am 02:53 Clear 79 26.1 57 13.9 47 47 NNE 3 6 29.71 1006 10 16 0.00 0.00
3:53 am 03:53 Clear 78 25.6 61 16.1 56 56 Calm 29.71 1006 10 16 0.00 0.00
4:53 am 04:53 Clear 77 25 59 15 54 54 Calm 29.71 1006 10 16 0.00 0.00
5:53 am 05:53 Sunny 75 23.9 57 13.9 54 54 Calm 29.73 1007 10 16 0.00 0.00
6:53 am 06:53 Sunny 81 27.2 57 13.9 44 44 Calm 29.74 1007 10 16 0.00 0.00
7:53 am 07:53 Sunny 84 28.9 59 15 43 43 Calm 29.73 1007 10 16 0.00 0.00
8:53 am 08:53 Sunny 87 30.6 58 14.4 37 37 SSW 3 6 29.74 1007 10 16 0.00 0.00
9:53 am 09:53 Sunny 91 32.8 59 15 34 34 S 6 9 29.73 1007 10 16 0.00 0.00
10:53 am 10:53 Sunny 94 34.4 59 15 31 31 S 5 7 29.73 1007 10 16 0.00 0.00
11:53 am 11:53 Sunny 98 36.7 58 14.4 26 26 SSE 5 7 29.71 1006 10 16 0.00 0.00
12:53 pm 12:53 Sunny 102 38.9 57 13.9 23 23 Calm 29.69 1005 10 16 0.00 0.00
1:53 pm 13:53 Sunny 106 41.1 55 12.8 19 19 S 7 11 29.66 1004 10 16 0.00 0.00
2:53 pm 14:53 Sunny 109 42.8 54 12.2 16 16 SSE 8 13 29.64 1004 10 16 0.00 0.00
3:53 pm 15:53 Sunny 109 42.8 56 13.3 17 17 SSE 12 19 29.62 1003 10 16 0.00 0.00
4:53 pm 16:53 Sunny 109 42.8 56 13.3 17 17 SE 13 20 29.61 1003 10 16 0.00 0.00
5:53 pm 17:53 Sunny 107 41.7 57 13.9 19 19 SSE 13 20 29.59 1002 10 16 0.00 0.00
6:53 pm 18:53 Sunny 105 40.6 59 15 22 22 SSE 14 22 29.58 1002 10 16 0.00 0.00
7:53 pm 19:53 Sunny 99 37.2 62 16.7 30 30 SSE 12 19 29.59 1002 10 16 0.00 0.00
8:53 pm 20:53 Clear 94 34.4 63 17.2 36 36 SE 5 7 29.60 1003 10 16 0.00 0.00
9:53 pm 21:53 Clear 91 32.8 63 17.2 39 39 SSE 5 7 29.62 1003 10 16 0.00 0.00
10:53 pm 22:53 Clear 87 30.6 63 17.2 45 45 SSE 6 9 29.63 1003 10 16 0.00 0.00
11:53 pm 23:53 Clear 87 30.6 64 17.8 46 46 ESE 5 7 29.64 1004 10 16 0.00 0.00

Powered by AerisWeather